RH
93 94 95 95 96 96 91 97 97 96 96 95 94 92 89 88 83 89 75 65 66 64 64 58 48 52 49 38 29 27 24 19 12 12 11 20 24 24 22 26 23 21 22 33 56
94 94 96 95 94 93 83 90 97 94 91 91 84 93 92 87 82 77 62 68 76 78 54 49 48 45 42 38 37 33 23 14 9 9 9 22 21 25 25 26 23 26 29 47 56
69 67 95 96 95 78 65 74 93 98 95 78 78 76 90 88 77 64 60 76 87 85 60 46 40 40 39 29 31 28 20 12 15 19 20 21 21 22 24 28 22 23 33 47 52
77 75 74 76 80 74 73 74 87 97 99 79 74 80 82 79 74 44 74 80 85 84 68 48 41 46 39 35 27 23 19 16 22 28 24 23 20 24 23 23 18 18 28 44 46
57 55 59 64 69 82 77 80 84 83 83 93 95 89 84 79 54 78 90 86 89 79 73 45 42 42 38 30 24 30 18 22 26 28 24 21 24 23 22 21 19 23 32 41 39
56 53 56 56 63 76 74 74 70 74 68 76 80 78 72 83 66 88 86 86 73 74 79 57 37 33 31 26 26 20 21 24 27 26 24 26 25 22 19 22 26 30 34 36 34
64 52 50 52 54 57 70 73 67 62 64 62 70 66 54 71 66 78 84 72 76 68 65 65 37 35 30 28 22 18 29 29 27 25 25 23 28 27 19 22 27 29 30 33 31
58 53 47 47 49 58 56 69 79 72 65 59 59 61 66 60 63 66 72 84 83 74 68 54 58 45 39 22 24 25 20 28 28 26 26 28 29 23 18 22 25 26 29 33 31
53 50 47 45 48 51 46 56 72 77 84 77 67 68 77 64 58 67 58 64 72 75 74 68 43 47 32 33 29 23 25 20 33 26 25 27 20 22 19 21 22 23 25 30 31
52 48 44 42 41 40 40 52 71 86 86 82 72 75 72 75 62 70 64 67 67 67 69 65 45 44 35 36 52 27 18 16 27 28 27 29 23 23 19 19 20 21 20 22 24
51 48 43 40 44 38 54 64 52 53 47 58 50 67 79 88 72 71 73 71 66 72 76 50 60 52 35 25 20 16 15 19 24 26 28 27 21 20 21 20 19 18 18 18 18
48 46 42 40 44 44 54 48 64 75 58 43 57 61 62 61 67 59 58 73 68 77 50 48 49 33 28 22 21 16 21 23 29 26 25 27 24 17 20 21 19 18 16 15 15
46 44 41 40 41 60 63 67 87 88 49 48 54 56 52 53 59 66 47 43 58 59 43 40 37 33 32 28 26 20 19 30 28 27 22 23 26 21 17 19 22 22 20 16 15
45 43 41 40 47 56 58 76 85 83 47 50 48 44 42 39 39 37 43 60 58 41 32 37 35 29 29 26 26 28 25 24 30 33 31 21 29 20 15 20 22 24 26 26 23
42 44 41 49 58 46 67 76 82 70 63 33 33 32 31 41 37 55 64 37 39 38 41 51 36 32 32 41 38 30 24 24 25 28 24 20 23 13 12 15 17 20 23 27 28
40 41 44 62 61 62 58 78 63 65 68 38 32 34 42 35 45 44 31 32 33 39 39 48 43 46 46 38 36 29 23 21 19 22 55 37 28 10 13 11 9 15 21 29 35
47 46 50 63 53 68 71 56 73 73 36 38 42 34 41 36 32 34 35 37 40 81 75 36 44 42 45 36 32 29 23 62 57 84 34 38 49 17 12 16 20 18 24 29 35
42 49 59 63 71 66 60 41 70 47 41 37 36 31 35 33 31 31 30 36 33 29 41 60 61 46 47 48 32 21 22 58 35 36 29 46 58 18 21 20 22 24 24 29 36
40 64 65 70 54 72 47 74 65 42 44 42 30 30 34 30 28 27 34 36 37 35 35 49 55 45 46 38 39 25 30 24 34 42 44 31 25 18 23 22 28 29 28 33 36
60 55 50 50 51 56 45 54 46 45 46 40 30 29 30 31 29 25 29 41 41 37 31 28 50 46 43 44 33 34 27 28 33 58 26 30 16 25 22 24 26 34 35 34 36
63 38 48 42 52 37 72 52 44 42 45 40 33 29 31 32 29 28 31 40 39 37 27 21 27 43 44 38 29 29 27 22 21 24 22 15 26 20 25 28 26 27 32 32 35
55 43 47 41 41 36 50 47 53 41 40 41 38 33 31 33 33 30 31 40 43 42 32 28 22 35 32 40 39 37 27 20 20 27 24 21 21 17 22 26 28 26 25 30 32
36 34 46 51 45 40 44 45 44 40 42 40 39 37 34 34 36 34 39 42 42 44 39 29 26 35 31 36 38 35 32 28 22 23 25 21 15 14 18 21 23 28 26 28 33
36 51 33 32 34 30 33 36 39 46 40 39 37 32 30 30 33 37 38 46 45 45 61 40 26 26 24 32 27 34 36 30 21 31 20 18 11 11 12 15 14 17 20 23 29
40 44 47 39 32 32 32 31 31 36 35 32 34 34 31 28 27 35 38 36 41 43 34 32 32 41 29 31 33 32 32 36 32 25 20 15 19 17 17 18 17 17 18 20 24
42 39 38 35 36 30 36 36 35 40 39 33 37 36 30 30 36 31 33 28 33 30 32 28 44 35 44 34 34 36 28 27 32 32 30 27 25 19 17 19 22 21 20 20 23
57 51 43 48 31 30 35 38 40 37 45 40 38 34 39 46 40 41 39 39 39 35 32 31 35 35 29 29 27 30 22 24 26 28 24 26 20 21 25 26 27 26 25 24 22
Wind_Speed
18 21 24 26 19 11 11 11 10 12 14 16 16 19 24 24 20 20 27 15 22 2 9 12 12 12 12 11 12 5 8 16 22 18 13 11 13 6 5 6 4 3 6 6 25
17 22 25 21 20 11 9 10 13 13 14 14 12 16 21 21 21 24 24 21 22 7 9 16 15 15 12 15 9 12 12 18 16 14 13 15 14 12 9 10 7 7 7 21 23
18 20 20 20 15 13 12 12 12 12 11 8 8 8 16 18 15 14 22 20 15 15 11 12 13 14 17 13 16 13 15 16 3 2 7 14 13 11 10 11 8 12 14 19 20
15 17 17 18 14 14 13 13 12 13 15 12 4 2 15 22 10 12 20 19 14 12 12 13 11 15 16 18 16 12 18 6 5 1 7 15 10 8 11 6 7 2 16 20 18
14 16 15 14 13 12 14 13 10 12 13 13 10 8 8 6 1 5 14 17 14 11 11 13 14 14 17 19 19 14 16 5 3 5 8 9 11 9 8 4 5 11 15 17 16
15 16 15 13 12 11 11 12 13 9 10 12 5 7 5 5 2 7 13 16 15 14 4 11 11 17 9 16 17 18 10 7 6 7 6 10 7 10 6 7 10 11 13 14 14
14 16 15 14 14 13 8 6 8 13 12 18 5 2 1 5 3 7 9 13 15 11 7 6 10 13 7 15 18 12 11 8 8 8 5 9 8 8 9 9 11 11 11 12 12
13 14 16 16 18 13 9 8 6 5 12 13 13 3 4 2 6 7 6 7 7 6 6 7 19 11 9 7 10 19 14 11 7 8 4 6 12 10 8 10 11 12 11 11 12
12 13 16 18 21 16 14 8 9 7 6 5 8 5 3 1 3 7 2 7 5 4 3 1 16 13 6 15 14 17 15 18 8 5 5 11 8 12 8 9 11 11 11 11 11
12 13 14 18 17 18 13 1 6 6 7 6 1 1 2 2 0 2 5 5 5 7 4 3 8 9 10 15 14 19 19 20 12 9 9 13 5 8 7 9 10 11 12 12 12
11 14 15 18 13 13 10 2 4 4 1 7 6 4 5 6 4 2 3 3 6 5 8 16 11 12 17 20 18 16 17 18 13 4 9 14 10 8 9 8 11 11 12 12 11
10 13 15 18 11 10 8 3 4 3 7 5 5 3 3 13 4 1 12 8 7 10 15 8 12 5 5 15 13 16 14 14 6 4 4 8 11 8 10 10 11 11 12 11 10
10 12 14 15 8 6 6 4 2 0 2 3 4 4 3 10 12 8 13 4 8 10 18 14 8 3 1 8 11 16 17 14 9 8 3 6 9 11 10 9 8 9 8 9 11
11 12 13 12 3 4 2 6 2 2 1 5 3 2 2 6 4 2 2 5 3 7 15 7 4 6 2 11 5 10 2 12 15 12 6 4 4 17 15 13 13 13 12 11 10
11 11 12 9 7 4 5 6 1 3 3 9 2 5 2 2 5 8 6 3 2 1 2 3 7 8 3 3 9 5 8 11 13 5 5 5 3 5 8 14 16 15 13 10 7
10 10 10 5 2 2 6 2 2 2 4 5 4 5 3 9 1 9 5 4 3 13 14 7 4 5 3 6 6 11 15 11 6 3 1 4 3 6 9 7 10 14 12 10 8
11 10 5 4 3 6 3 3 1 4 1 5 4 4 4 2 4 3 2 4 2 4 2 9 8 5 6 2 3 7 13 4 2 1 1 1 2 8 3 3 2 7 11 10 9
11 7 3 3 5 4 3 3 6 2 3 2 3 2 4 6 4 3 2 3 7 1 7 4 4 4 8 4 3 7 2 3 5 5 4 2 5 2 5 2 1 4 10 10 10
4 0 2 3 6 2 4 5 2 2 3 6 3 2 2 3 2 2 5 4 5 6 2 5 4 2 4 4 5 4 2 1 4 3 2 4 4 6 1 3 3 6 9 9 9
1 2 1 8 2 3 2 3 2 1 3 3 4 3 2 4 1 1 3 3 3 5 5 3 6 2 0 3 2 3 3 2 1 3 3 4 3 1 2 3 5 7 8 9 9
1 3 2 6 1 0 3 4 3 3 4 4 4 2 4 3 4 2 4 3 5 5 4 2 2 4 2 1 3 3 2 2 2 2 2 1 4 3 4 3 4 7 10 10 11
3 1 4 1 0 2 3 2 1 3 1 2 4 5 3 3 4 3 3 5 7 5 4 4 3 4 2 1 2 3 2 3 2 3 2 2 2 2 3 1 1 5 7 9 10
3 2 3 2 2 3 3 3 3 3 3 4 4 5 5 4 1 3 3 3 5 5 5 4 1 5 3 3 2 4 3 2 3 2 4 2 2 3 4 2 1 5 7 10 12
3 1 2 3 2 3 2 3 2 1 2 3 3 2 2 4 5 3 4 5 6 6 6 5 2 5 2 4 2 4 7 7 5 3 4 8 8 4 1 9 10 6 7 9 10
3 2 2 2 4 4 0 1 2 2 2 3 2 5 4 2 2 3 2 2 2 2 2 2 3 5 6 6 4 3 2 7 9 7 4 6 11 13 15 13 12 9 8 9 10
3 2 1 2 1 1 1 2 2 2 3 3 3 5 6 4 5 3 3 3 3 2 2 2 1 1 2 0 1 3 7 8 9 10 11 11 13 5 8 9 9 9 9 8 8
2 0 3 1 0 2 2 2 2 0 2 2 1 0 4 3 4 4 5 4 4 3 2 2 1 1 0 2 6 7 7 11 5 8 6 6 5 10 9 10 11 11 10 10 9
Wind_Direction
11 4 3 1 353 339 330 318 307 301 297 291 283 256 246 237 235 228 218 215 216 166 200 195 200 214 222 216 224 243 221 218 218 229 200 155 175 196 58 120 174 117 36 93 146
11 5 8 5 11 1 353 352 337 334 322 300 284 266 239 223 219 219 211 205 206 191 185 189 186 194 206 207 197 210 221 217 207 219 228 176 187 163 172 157 159 138 107 129 150
11 8 6 14 13 22 15 6 0 6 15 340 316 288 217 194 205 223 197 200 204 211 213 203 200 194 218 205 205 211 226 224 170 23 292 181 198 170 185 193 180 184 152 152 163
5 358 3 15 19 18 28 27 28 42 35 27 5 78 161 171 182 183 178 193 194 188 195 199 205 194 215 206 204 217 225 278 126 185 225 180 162 191 194 68 78 117 157 162 170
1 1 359 357 4 9 7 25 23 34 41 45 72 127 133 203 351 169 170 175 177 178 196 192 197 193 209 205 195 230 192 210 171 186 203 176 178 166 148 106 122 122 153 170 173
354 360 358 349 337 343 9 34 47 43 46 41 83 130 133 180 347 141 169 165 175 171 164 235 211 204 246 208 194 203 165 161 170 166 156 176 158 166 138 138 129 147 163 173 177
344 353 354 348 343 338 306 329 40 39 60 41 96 123 179 52 155 146 176 175 159 162 158 235 235 213 278 215 209 165 153 155 173 178 155 190 176 203 133 150 147 164 168 174 181
338 347 349 343 339 330 314 262 269 16 41 36 46 66 85 83 129 155 160 136 170 162 136 208 308 279 258 223 188 182 170 172 161 178 160 206 185 143 164 167 163 164 169 178 186
331 341 344 343 342 335 328 252 248 285 310 335 35 354 105 91 203 137 206 178 147 139 197 169 283 227 217 207 180 191 182 191 152 203 164 211 185 145 172 190 177 177 178 186 188
321 331 341 340 345 346 338 308 237 276 284 263 173 155 17 335 271 80 153 137 152 144 100 247 230 209 216 213 186 186 193 188 169 176 202 192 134 154 181 195 196 190 191 193 197
316 327 337 341 344 354 350 268 210 162 286 53 20 127 168 111 70 39 136 144 219 185 177 201 192 203 195 210 199 185 202 179 128 146 198 195 196 181 186 204 208 204 201 204 205
311 325 337 340 337 351 5 23 34 1 103 93 86 51 90 168 27 195 173 198 204 184 170 172 192 170 257 223 228 188 164 161 103 159 237 180 211 176 189 211 211 211 216 212 206
309 321 332 339 337 359 40 35 347 345 187 77 117 160 230 188 147 232 192 198 189 178 178 171 91 125 98 222 201 187 191 150 154 149 74 174 222 199 207 209 208 228 240 232 224
311 318 329 338 307 337 350 329 313 213 192 126 313 23 223 302 74 106 113 126 270 178 164 85 129 138 196 209 246 160 348 152 141 158 180 215 243 197 196 211 216 212 209 218 212
314 319 329 340 319 316 315 322 323 265 14 346 50 141 151 202 114 32 163 246 294 63 226 101 118 110 179 320 308 119 160 149 159 137 152 175 252 137 197 214 216 212 203 200 194
322 318 325 336 305 301 323 313 252 247 34 357 3 30 74 86 97 176 215 194 267 71 80 102 105 49 54 335 255 145 123 112 122 140 189 90 259 224 182 232 219 195 194 182 174
326 320 306 313 341 317 323 228 242 45 279 9 356 67 149 65 108 169 149 84 58 93 85 102 58 93 31 139 194 229 155 120 115 146 217 77 213 259 113 81 25 200 184 175 171
312 312 287 248 312 327 245 224 59 315 46 8 328 341 63 359 77 54 116 92 56 291 155 119 121 24 14 329 298 172 270 168 150 180 149 45 222 234 46 59 345 234 183 167 174
327 266 220 275 319 290 247 59 96 10 356 338 279 129 61 56 353 57 52 47 35 8 331 121 85 79 45 344 313 158 178 33 100 64 171 173 238 199 224 170 156 167 173 180 181
342 239 130 331 341 229 33 84 70 318 316 277 355 332 81 12 298 6 39 29 22 10 306 73 105 77 33 269 72 317 115 162 136 137 200 166 252 294 51 185 175 183 198 196 189
264 245 357 345 194 131 57 56 47 20 325 321 16 24 47 11 3 54 36 68 12 349 347 24 94 130 246 321 33 156 161 64 58 3 346 347 103 51 69 48 207 211 209 205 200
301 344 348 353 210 62 64 20 303 8 353 318 316 1 25 21 40 54 67 40 1 344 19 27 81 133 79 99 313 320 10 323 285 134 55 10 285 122 100 50 313 251 221 220 210
337 348 335 337 81 82 115 99 26 5 22 6 20 20 5 9 360 44 59 37 11 13 9 12 136 127 158 177 191 235 165 112 104 37 211 283 106 134 128 106 65 282 242 223 215
293 351 62 67 17 61 107 71 83 59 25 345 355 280 332 41 40 71 66 34 16 21 341 300 31 357 36 60 66 179 193 204 211 196 194 230 279 196 334 334 333 311 297 277 240
355 62 4 24 58 55 308 108 77 46 35 2 97 36 358 36 75 75 74 116 84 354 355 357 59 36 44 33 3 346 208 197 208 244 259 349 326 320 326 339 340 326 313 303 272
341 312 200 86 336 288 9 43 50 117 352 43 70 27 19 63 28 47 348 13 30 52 32 350 108 84 136 358 268 257 243 240 237 265 276 284 295 55 329 325 326 318 309 296 274
16 297 294 85 320 263 45 75 74 225 87 37 11 305 78 68 50 68 68 76 58 359 39 15 122 348 98 292 300 262 238 207 205 210 229 241 32 344 337 336 329 322 316 304 286